SCP
0 0 0 0 0 0 0 0 0 0 0 0 0 0 0 0 0 0 0 0 0 0 0 0 0 0 0 0 2 1 1 1
0 0 0 0 0 0 0 0 0 0 0 0 0 0 0 0 0 0 0 0 0 0 0 0 0 0 0 0 1 1 1 2
0 0 0 0 0 0 0 0 0 0 0 0 0 0 0 0 0 0 0 0 0 0 0 0 0 1 0 0 0 1 1 1
0 0 0 0 0 0 0 0 0 0 0 0 0 0 0 0 0 0 0 0 0 0 0 0 0 3 0 0 0 1 2 2
0 0 0 0 0 0 0 0 0 0 0 0 0 -0 0 0 0 0 0 0 0 0 0 0 0 2 3 0 0 1 3 2
0 0 0 0 0 0 0 0 0 0 0 0 0 0 0 0 0 0 0 0 0 0 0 0 0 1 3 3 0 1 2 1
0 0 0 0 0 0 0 0 0 0 0 0 0 0 0 0 0 0 0 0 0 0 0 0 0 1 2 4 2 1 2 2
0 0 0 0 0 0 0 0 0 0 0 0 0 0 0 0 0 0 0 0 0 0 0 0 0 1 1 1 4 3 3 2
0 0 0 0 -0 0 0 0 0 0 0 0 0 0 0 0 0 0 0 0 0 0 0 0 0 0 1 1 2 4 2 5
0 0 0 0 0 0 0 0 0 0 0 0 0 0 0 0 -0 0 0 0 0 0 0 0 0 0 0 0 1 3 3 3
0 0 0 0 0 0 0 0 0 0 0 0 0 0 0 -0 0 0 0 0 0 0 0 0 0 0 0 0 1 2 1 2
0 0 0 0 0 0 0 0 0 0 0 0 0 0 0 0 0 0 0 0 0 0 0 0 0 0 0 0 1 2 1 1
0 0 0 0 0 0 0 0 0 0 0 0 0 0 0 0 0 0 0 0 0 0 0 0 0 0 0 0 1 2 2 2
0 0 0 0 0 0 0 0 0 0 0 0 0 0 0 0 0 0 0 0 0 0 0 0 0 0 0 1 1 1 3 2
0 0 0 0 0 0 0 0 0 0 0 0 0 0 0 0 0 0 0 0 0 0 0 -0 0 0 0 0 0 1 2 3
0 0 0 0 0 0 0 0 0 0 0 0 0 0 0 -0 0 0 0 0 0 0 -0 -0 0 0 0 0 0 0 0 0
0 0 0 0 0 0 0 0 0 0 0 0 0 0 0 0 0 0 0 0 0 0 0 0 0 0 0 0 0 0 0 0
0 0 0 0 0 0 0 0 0 0 0 0 0 0 0 0 0 0 0 0 0 0 0 0 0 0 0 0 0 0 1 2
0 0 0 0 0 0 0 0 0 0 0 0 0 0 0 0 0 0 0 0 0 0 0 0 0 0 0 0 0 0 0 0
Wind_Speed_500mb
1 8 11 5 15 18 18 27 18 20 15 13 27 25 16 21 15 16 18 21 22 20 18 22 45 59 66 70 73 76 71 74
15 11 22 20 19 15 16 15 23 18 18 18 37 30 15 9 15 20 21 21 24 24 23 28 35 46 65 74 78 71 69 76
5 22 19 14 20 20 28 23 23 20 5 27 27 20 8 10 25 27 29 30 30 31 33 36 37 49 66 70 77 78 75 75
19 18 7 22 28 30 21 21 23 24 25 29 21 8 15 21 26 33 31 33 35 35 38 44 50 45 34 58 71 79 77 78
27 24 17 20 24 27 28 27 34 26 15 12 23 15 11 20 39 41 38 37 38 40 40 44 48 46 36 39 58 72 75 76
25 35 26 19 19 22 25 24 28 32 37 31 15 29 36 40 35 40 39 40 41 42 43 42 44 46 40 33 47 59 72 70
28 30 33 33 35 35 35 36 37 42 45 42 43 42 48 34 29 32 39 44 46 41 44 45 44 47 39 31 35 49 58 72
27 31 34 36 35 37 42 42 43 48 49 42 50 40 38 37 43 48 42 45 42 43 49 48 46 48 50 36 35 38 50 54
27 26 15 21 33 30 30 32 39 42 37 36 36 43 45 49 54 56 44 46 40 47 48 48 47 50 55 46 33 39 48 48
23 22 30 14 11 18 26 31 32 38 34 33 32 41 46 51 61 48 38 36 48 52 53 55 55 50 48 47 44 38 51 52
19 23 27 26 11 14 22 34 38 41 39 40 38 47 51 50 25 38 44 50 55 53 57 59 60 56 47 48 47 44 45 60
21 23 27 22 27 18 19 33 30 35 41 47 50 33 32 48 61 61 58 57 57 57 59 61 68 58 52 48 47 46 47 55
21 23 17 21 18 19 21 24 56 56 58 61 44 61 81 75 70 62 62 60 56 59 60 59 58 56 55 49 46 49 51 56
19 24 16 24 31 23 33 52 52 59 65 75 73 77 72 67 68 67 60 57 53 54 61 59 50 54 53 50 50 51 41 40
14 23 42 25 34 40 36 43 51 68 77 71 72 68 68 66 66 55 48 45 37 45 54 53 52 54 61 47 52 48 48 36
19 26 32 33 27 27 31 45 53 53 59 57 59 63 67 64 54 41 20 20 29 34 39 44 41 45 49 40 23 27 33 41
26 24 27 32 29 30 32 32 33 44 46 48 51 51 37 19 8 5 9 18 21 27 30 31 29 33 36 36 33 25 25 24
20 36 32 34 32 15 20 20 29 30 34 37 49 36 27 25 22 17 22 29 31 27 33 30 24 25 7 31 35 27 30 36
25 30 34 28 11 11 13 15 18 23 33 24 49 55 49 47 49 47 51 39 39 43 46 39 44 50 61 31 27 14 18 24
Wind_Direction_500mb
200 298 282 82 249 4 301 271 264 273 140 151 118 103 97 94 75 38 15 15 12 358 330 307 233 229 228 223 216 221 216 219
124 269 235 267 345 267 213 274 270 252 226 223 176 135 101 66 36 11 359 353 352 345 342 323 286 255 228 226 222 220 218 220
233 217 265 188 222 226 278 293 296 278 22 55 97 101 90 11 10 347 344 343 340 335 333 328 317 300 232 225 224 220 221 219
267 106 289 278 282 284 275 239 246 269 273 130 117 117 40 2 345 337 337 337 338 334 334 332 335 322 250 225 224 221 219 221
232 218 190 253 254 254 267 276 268 282 273 101 122 207 4 354 327 324 330 335 335 340 336 337 335 328 314 248 229 223 219 222
287 326 325 290 252 268 273 275 276 257 264 283 256 333 340 328 326 315 320 327 330 331 335 332 331 331 318 291 243 230 221 223
291 293 289 284 281 278 266 267 273 283 295 304 314 316 311 315 314 308 312 319 322 326 329 330 327 328 321 300 267 245 235 223
282 276 269 271 276 273 268 271 274 277 277 283 285 300 315 315 312 309 304 309 320 321 321 323 324 323 322 306 282 263 244 239
278 290 300 282 261 265 270 268 269 272 291 333 339 333 324 317 315 306 307 301 317 318 314 318 318 316 313 309 283 276 252 242
274 282 269 312 12 297 284 290 304 313 314 328 324 314 309 305 289 302 316 318 309 307 311 308 308 311 304 302 282 268 248 231
275 266 290 310 39 9 347 312 313 297 312 322 310 302 295 285 338 326 316 304 302 302 306 306 305 302 302 296 295 270 255 251
285 301 289 299 59 34 334 294 19 340 315 308 307 292 289 305 311 308 305 303 299 301 303 304 306 298 292 291 291 274 254 252
264 272 285 47 22 327 284 333 330 320 313 307 302 296 297 293 288 291 295 296 296 298 299 302 308 298 289 287 282 276 262 240
276 269 289 352 318 319 318 308 315 312 311 305 300 296 296 298 292 283 289 295 291 294 297 305 303 289 283 282 279 278 269 241
318 321 326 326 327 323 350 327 313 308 305 299 295 290 292 291 289 295 294 289 296 299 302 304 295 284 285 280 285 274 263 252
293 288 312 306 334 329 335 321 319 318 313 306 300 296 296 292 286 289 293 317 312 313 312 305 298 290 276 253 256 246 252 234
272 269 318 312 340 336 333 327 336 339 339 343 335 320 311 321 332 343 353 359 345 330 320 326 322 293 268 234 210 229 190 162
331 328 324 318 324 339 338 334 342 342 348 358 11 18 19 24 46 44 40 40 20 3 348 357 28 51 265 214 201 203 204 159
297 316 311 308 313 348 337 335 357 357 3 17 33 24 38 47 43 45 42 37 17 16 359 5 48 60 62 88 186 128 102 167
Wind_Speed_850mb
1 8 11 5 15 18 18 27 18 20 15 13 27 25 16 21 15 16 18 21 22 20 18 22 45 59 66 70 73 76 71 74
15 11 22 20 19 15 16 15 23 18 18 18 37 30 15 9 15 20 21 21 24 24 23 28 35 46 65 74 78 71 69 76
5 22 19 14 20 20 28 23 23 20 5 27 27 20 8 10 25 27 29 30 30 31 33 36 37 49 66 70 77 78 75 75
19 18 7 22 28 30 21 21 23 24 25 29 21 8 15 21 26 33 31 33 35 35 38 44 50 45 34 58 71 79 77 78
27 24 17 20 24 27 28 27 34 26 15 12 23 15 11 20 39 41 38 37 38 40 40 44 48 46 36 39 58 72 75 76
25 35 26 19 19 22 25 24 28 32 37 31 15 29 36 40 35 40 39 40 41 42 43 42 44 46 40 33 47 59 72 70
28 30 33 33 35 35 35 36 37 42 45 42 43 42 48 34 29 32 39 44 46 41 44 45 44 47 39 31 35 49 58 72
27 31 34 36 35 37 42 42 43 48 49 42 50 40 38 37 43 48 42 45 42 43 49 48 46 48 50 36 35 38 50 54
27 26 15 21 33 30 30 32 39 42 37 36 36 43 45 49 54 56 44 46 40 47 48 48 47 50 55 46 33 39 48 48
23 22 30 14 11 18 26 31 32 38 34 33 32 41 46 51 61 48 38 36 48 52 53 55 55 50 48 47 44 38 51 52
19 23 27 26 11 14 22 34 38 41 39 40 38 47 51 50 25 38 44 50 55 53 57 59 60 56 47 48 47 44 45 60
21 23 27 22 27 18 19 33 30 35 41 47 50 33 32 48 61 61 58 57 57 57 59 61 68 58 52 48 47 46 47 55
21 23 17 21 18 19 21 24 56 56 58 61 44 61 81 75 70 62 62 60 56 59 60 59 58 56 55 49 46 49 51 56
19 24 16 24 31 23 33 52 52 59 65 75 73 77 72 67 68 67 60 57 53 54 61 59 50 54 53 50 50 51 41 40
14 23 42 25 34 40 36 43 51 68 77 71 72 68 68 66 66 55 48 45 37 45 54 53 52 54 61 47 52 48 48 36
19 26 32 33 27 27 31 45 53 53 59 57 59 63 67 64 54 41 20 20 29 34 39 44 41 45 49 40 23 27 33 41
26 24 27 32 29 30 32 32 33 44 46 48 51 51 37 19 8 5 9 18 21 27 30 31 29 33 36 36 33 25 25 24
20 36 32 34 32 15 20 20 29 30 34 37 49 36 27 25 22 17 22 29 31 27 33 30 24 25 7 31 35 27 30 36
25 30 34 28 11 11 13 15 18 23 33 24 49 55 49 47 49 47 51 39 39 43 46 39 44 50 61 31 27 14 18 24
Wind_Direction_850mb
200 298 282 82 249 4 301 271 264 273 140 151 118 103 97 94 75 38 15 15 12 358 330 307 233 229 228 223 216 221 216 219
124 269 235 267 345 267 213 274 270 252 226 223 176 135 101 66 36 11 359 353 352 345 342 323 286 255 228 226 222 220 218 220
233 217 265 188 222 226 278 293 296 278 22 55 97 101 90 11 10 347 344 343 340 335 333 328 317 300 232 225 224 220 221 219
267 106 289 278 282 284 275 239 246 269 273 130 117 117 40 2 345 337 337 337 338 334 334 332 335 322 250 225 224 221 219 221
232 218 190 253 254 254 267 276 268 282 273 101 122 207 4 354 327 324 330 335 335 340 336 337 335 328 314 248 229 223 219 222
287 326 325 290 252 268 273 275 276 257 264 283 256 333 340 328 326 315 320 327 330 331 335 332 331 331 318 291 243 230 221 223
291 293 289 284 281 278 266 267 273 283 295 304 314 316 311 315 314 308 312 319 322 326 329 330 327 328 321 300 267 245 235 223
282 276 269 271 276 273 268 271 274 277 277 283 285 300 315 315 312 309 304 309 320 321 321 323 324 323 322 306 282 263 244 239
278 290 300 282 261 265 270 268 269 272 291 333 339 333 324 317 315 306 307 301 317 318 314 318 318 316 313 309 283 276 252 242
274 282 269 312 12 297 284 290 304 313 314 328 324 314 309 305 289 302 316 318 309 307 311 308 308 311 304 302 282 268 248 231
275 266 290 310 39 9 347 312 313 297 312 322 310 302 295 285 338 326 316 304 302 302 306 306 305 302 302 296 295 270 255 251
285 301 289 299 59 34 334 294 19 340 315 308 307 292 289 305 311 308 305 303 299 301 303 304 306 298 292 291 291 274 254 252
264 272 285 47 22 327 284 333 330 320 313 307 302 296 297 293 288 291 295 296 296 298 299 302 308 298 289 287 282 276 262 240
276 269 289 352 318 319 318 308 315 312 311 305 300 296 296 298 292 283 289 295 291 294 297 305 303 289 283 282 279 278 269 241
318 321 326 326 327 323 350 327 313 308 305 299 295 290 292 291 289 295 294 289 296 299 302 304 295 284 285 280 285 274 263 252
293 288 312 306 334 329 335 321 319 318 313 306 300 296 296 292 286 289 293 317 312 313 312 305 298 290 276 253 256 246 252 234
272 269 318 312 340 336 333 327 336 339 339 343 335 320 311 321 332 343 353 359 345 330 320 326 322 293 268 234 210 229 190 162
331 328 324 318 324 339 338 334 342 342 348 358 11 18 19 24 46 44 40 40 20 3 348 357 28 51 265 214 201 203 204 159
297 316 311 308 313 348 337 335 357 357 3 17 33 24 38 47 43 45 42 37 17 16 359 5 48 60 62 88 186 128 102 167